Time,TemperatureF,DewpointF,PressureIn,WindDirection,WindDirectionDegrees,WindSpeedMPH,WindSpeedGustMPH,Humidity,HourlyPrecipIn,Conditions,Clouds,dailyrainin,SolarRadiationWatts/m^2,SoftwareType,DateUTC
2013-03-08 00:00:00,39.0,27.0,-100.00,WNW,289,7.0,8.0,62,-99.99,,,0.00,0.000000,,2013-03-08 08:00:00,
2013-03-08 00:32:00,39.0,27.0,-100.00,WNW,289,7.0,8.0,62,-99.99,,,0.00,0.000000,,2013-03-08 08:32:00,
2013-03-08 00:42:00,39.0,27.0,-100.00,WNW,289,7.0,8.0,62,-99.99,,,0.00,0.000000,,2013-03-08 08:42:00,
2013-03-08 00:52:00,39.0,27.0,-100.00,WNW,289,7.0,8.0,62,-99.99,,,0.00,0.000000,,2013-03-08 08:52:00,
2013-03-08 01:00:00,40.0,28.0,-100.00,West,275,3.0,9.0,62,0.00,,,0.00,0.000000,,2013-03-08 09:00:00,
2013-03-08 01:32:00,40.0,28.0,-100.00,West,275,3.0,9.0,62,0.00,,,0.00,0.000000,,2013-03-08 09:32:00,
2013-03-08 01:42:00,40.0,28.0,-100.00,West,275,3.0,9.0,62,0.00,,,0.00,0.000000,,2013-03-08 09:42:00,
2013-03-08 01:52:00,40.0,28.0,-100.00,West,275,3.0,9.0,62,0.00,,,0.00,0.000000,,2013-03-08 09:52:00,
2013-03-08 02:00:00,40.0,30.0,-100.00,NW,325,0.0,8.0,67,0.00,,,0.00,0.000000,,2013-03-08 10:00:00,
2013-03-08 02:32:00,40.0,30.0,-100.00,NW,325,0.0,8.0,67,0.00,,,0.00,0.000000,,2013-03-08 10:32:00,
2013-03-08 02:42:00,40.0,30.0,-100.00,NW,325,0.0,8.0,67,0.00,,,0.00,0.000000,,2013-03-08 10:42:00,
2013-03-08 02:52:00,40.0,30.0,-100.00,NW,325,0.0,8.0,67,0.00,,,0.00,0.000000,,2013-03-08 10:52:00,
2013-03-08 03:00:00,39.0,32.0,-100.00,East,96,5.0,7.0,75,0.00,,,0.00,0.000000,,2013-03-08 11:00:00,
2013-03-08 03:32:00,39.0,32.0,-100.00,East,96,5.0,7.0,75,0.00,,,0.00,0.000000,,2013-03-08 11:32:00,
2013-03-08 03:42:00,39.0,32.0,-100.00,East,96,5.0,7.0,75,0.00,,,0.00,0.000000,,2013-03-08 11:42:00,
2013-03-08 03:52:00,39.0,32.0,-100.00,East,96,5.0,7.0,75,0.00,,,0.00,0.000000,,2013-03-08 11:52:00,
2013-03-08 04:00:00,37.0,34.0,-100.00,WNW,295,3.0,12.0,88,0.03,,,0.03,0.000000,,2013-03-08 12:00:00,
2013-03-08 04:22:00,37.0,34.0,-100.00,WNW,295,3.0,12.0,88,0.03,,,0.03,0.000000,,2013-03-08 12:22:00,
2013-03-08 04:32:00,37.0,34.0,-100.00,WNW,295,3.0,12.0,88,0.03,,,0.03,0.000000,,2013-03-08 12:32:00,
2013-03-08 04:43:00,37.0,34.0,-100.00,WNW,295,3.0,12.0,88,0.03,,,0.03,0.000000,,2013-03-08 12:43:00,
2013-03-08 04:52:00,37.0,34.0,-100.00,WNW,295,3.0,12.0,88,0.03,,,0.03,0.000000,,2013-03-08 12:52:00,
2013-03-08 05:00:00,38.0,35.0,-100.00,WNW,296,0.0,7.0,89,0.00,,,0.03,0.000000,,2013-03-08 13:00:00,
2013-03-08 05:32:00,38.0,35.0,-100.00,WNW,296,0.0,7.0,89,0.00,,,0.03,0.000000,,2013-03-08 13:32:00,
2013-03-08 05:42:00,38.0,35.0,-100.00,WNW,296,0.0,7.0,89,0.00,,,0.03,0.000000,,2013-03-08 13:42:00,
2013-03-08 05:52:00,38.0,35.0,-100.00,WNW,296,0.0,7.0,89,0.00,,,0.03,0.000000,,2013-03-08 13:52:00,
2013-03-08 06:00:00,36.0,33.0,-100.00,NNW,330,0.0,4.0,88,0.03,,,0.06,0.000000,,2013-03-08 14:00:00,
2013-03-08 06:22:00,36.0,33.0,-100.00,NNW,330,0.0,4.0,88,0.03,,,0.06,0.000000,,2013-03-08 14:22:00,
2013-03-08 06:32:00,36.0,33.0,-100.00,NNW,330,0.0,4.0,88,0.03,,,0.06,0.000000,,2013-03-08 14:32:00,
2013-03-08 06:42:00,36.0,33.0,-100.00,NNW,330,0.0,4.0,88,0.03,,,0.06,0.000000,,2013-03-08 14:42:00,
2013-03-08 06:52:00,36.0,33.0,-100.00,NNW,330,0.0,4.0,88,0.03,,,0.06,0.000000,,2013-03-08 14:52:00,
2013-03-08 07:00:00,34.0,32.0,-100.00,NNW,339,0.0,6.0,94,0.07,,,0.13,0.000000,,2013-03-08 15:00:00,
2013-03-08 07:32:00,34.0,32.0,-100.00,NNW,339,0.0,6.0,94,0.07,,,0.13,0.000000,,2013-03-08 15:32:00,
2013-03-08 07:43:00,34.0,32.0,-100.00,NNW,339,0.0,6.0,94,0.07,,,0.13,0.000000,,2013-03-08 15:43:00,
2013-03-08 07:53:00,34.0,32.0,-100.00,NNW,339,0.0,6.0,94,0.07,,,0.13,0.000000,,2013-03-08 15:53:00,
2013-03-08 08:00:00,33.0,32.0,-100.00,North,3,0.0,4.0,96,0.05,,,0.18,5.000000,,2013-03-08 16:00:00,
2013-03-08 08:32:00,33.0,32.0,-100.00,North,3,0.0,4.0,96,0.05,,,0.18,5.000000,,2013-03-08 16:32:00,
2013-03-08 08:42:00,33.0,32.0,-100.00,North,3,0.0,4.0,96,0.05,,,0.18,5.000000,,2013-03-08 16:42:00,
2013-03-08 08:52:00,33.0,32.0,-100.00,North,3,0.0,4.0,96,0.05,,,0.18,5.000000,,2013-03-08 16:52:00,
2013-03-08 09:00:00,33.0,32.0,-100.00,SE,132,0.0,5.0,98,0.00,,,0.18,24.000000,,2013-03-08 17:00:00,
2013-03-08 09:32:00,33.0,32.0,-100.00,SE,132,0.0,5.0,98,0.00,,,0.18,24.000000,,2013-03-08 17:32:00,
2013-03-08 09:42:00,33.0,32.0,-100.00,SE,132,0.0,5.0,98,0.00,,,0.18,24.000000,,2013-03-08 17:42:00,
2013-03-08 09:52:00,33.0,32.0,-100.00,SE,132,0.0,5.0,98,0.00,,,0.18,24.000000,,2013-03-08 17:52:00,
2013-03-08 10:00:00,33.0,32.0,-100.00,ESE,103,0.0,3.0,98,0.00,,,0.18,42.000000,,2013-03-08 18:00:00,
2013-03-08 10:22:00,33.0,32.0,-100.00,ESE,103,0.0,3.0,98,0.00,,,0.18,42.000000,,2013-03-08 18:22:00,
2013-03-08 10:32:00,33.0,32.0,-100.00,ESE,103,0.0,3.0,98,0.00,,,0.18,42.000000,,2013-03-08 18:32:00,
2013-03-08 10:42:00,33.0,32.0,-100.00,ESE,103,0.0,3.0,98,0.00,,,0.18,42.000000,,2013-03-08 18:42:00,
2013-03-08 10:52:00,33.0,32.0,-100.00,ESE,103,0.0,3.0,98,0.00,,,0.18,42.000000,,2013-03-08 18:52:00,
2013-03-08 11:00:00,33.0,32.0,-100.00,SE,126,0.0,7.0,98,0.00,,,0.18,41.000000,,2013-03-08 19:00:00,
2013-03-08 11:32:00,33.0,32.0,-100.00,SE,126,0.0,7.0,98,0.00,,,0.18,41.000000,,2013-03-08 19:32:00,
2013-03-08 11:42:00,33.0,32.0,-100.00,SE,126,0.0,7.0,98,0.00,,,0.18,41.000000,,2013-03-08 19:42:00,
2013-03-08 11:52:00,33.0,32.0,-100.00,SE,126,0.0,7.0,98,0.00,,,0.18,41.000000,,2013-03-08 19:52:00,
2013-03-08 12:00:00,32.0,30.0,-100.00,ESE,106,0.0,3.0,94,0.00,,,0.18,71.000000,,2013-03-08 20:00:00,
2013-03-08 12:22:00,32.0,30.0,-100.00,ESE,106,0.0,3.0,94,0.00,,,0.18,71.000000,,2013-03-08 20:22:00,
2013-03-08 12:32:00,32.0,30.0,-100.00,ESE,106,0.0,3.0,94,0.00,,,0.18,71.000000,,2013-03-08 20:32:00,
2013-03-08 13:00:00,37.0,34.0,-100.00,ESE,113,5.0,7.0,89,-99.99,,,0.18,232.000000,,2013-03-08 21:00:00,
2013-03-08 13:32:00,37.0,34.0,-100.00,ESE,113,5.0,7.0,89,-99.99,,,0.18,232.000000,,2013-03-08 21:32:00,
2013-03-08 13:42:00,37.0,34.0,-100.00,ESE,113,5.0,7.0,89,-99.99,,,0.18,232.000000,,2013-03-08 21:42:00,
2013-03-08 13:52:00,37.0,34.0,-100.00,ESE,113,5.0,7.0,89,-99.99,,,0.18,232.000000,,2013-03-08 21:52:00,
2013-03-08 14:00:00,38.0,35.0,-100.00,ESE,121,2.0,9.0,89,0.20,,,0.38,458.000000,,2013-03-08 22:00:00,
2013-03-08 14:32:00,38.0,35.0,-100.00,ESE,121,2.0,9.0,89,0.20,,,0.38,458.000000,,2013-03-08 22:32:00,
2013-03-08 14:42:00,38.0,35.0,-100.00,ESE,121,2.0,9.0,89,0.20,,,0.38,458.000000,,2013-03-08 22:42:00,
2013-03-08 14:52:00,38.0,35.0,-100.00,ESE,121,2.0,9.0,89,0.20,,,0.38,458.000000,,2013-03-08 22:52:00,
2013-03-08 15:00:00,40.0,33.0,-100.00,WNW,284,9.0,18.0,75,0.01,,,0.39,471.000000,,2013-03-08 23:00:00,
2013-03-08 15:22:00,40.0,33.0,-100.00,WNW,284,9.0,18.0,75,0.01,,,0.39,471.000000,,2013-03-08 23:22:00,
2013-03-08 15:32:00,40.0,33.0,-100.00,WNW,284,9.0,18.0,75,0.01,,,0.39,471.000000,,2013-03-08 23:32:00,
2013-03-08 15:42:00,40.0,33.0,-100.00,WNW,284,9.0,18.0,75,0.01,,,0.39,471.000000,,2013-03-08 23:42:00,
2013-03-08 15:52:00,40.0,33.0,-100.00,WNW,284,9.0,18.0,75,0.01,,,0.39,471.000000,,2013-03-08 23:52:00,
2013-03-08 16:00:00,37.0,29.0,-100.00,West,279,10.0,20.0,73,0.00,,,0.39,422.000000,,2013-03-09 00:00:00,
2013-03-08 16:32:00,37.0,29.0,-100.00,West,279,10.0,20.0,73,0.00,,,0.39,422.000000,,2013-03-09 00:32:00,
2013-03-08 16:42:00,37.0,29.0,-100.00,West,279,10.0,20.0,73,0.00,,,0.39,422.000000,,2013-03-09 00:42:00,
2013-03-08 16:52:00,37.0,29.0,-100.00,West,279,10.0,20.0,73,0.00,,,0.39,422.000000,,2013-03-09 00:52:00,
2013-03-08 19:00:00,37.0,28.0,-100.00,WNW,297,15.0,28.0,69,-99.99,,,0.39,17.000000,,2013-03-09 03:00:00,
2013-03-08 19:32:00,37.0,28.0,-100.00,WNW,297,15.0,28.0,69,-99.99,,,0.39,17.000000,,2013-03-09 03:32:00,
2013-03-08 19:42:00,37.0,28.0,-100.00,WNW,297,15.0,28.0,69,-99.99,,,0.39,17.000000,,2013-03-09 03:42:00,
2013-03-08 19:52:00,37.0,28.0,-100.00,WNW,297,15.0,28.0,69,-99.99,,,0.39,17.000000,,2013-03-09 03:52:00,
2013-03-08 20:00:00,35.0,27.0,-100.00,WNW,296,7.0,26.0,71,0.00,,,0.39,0.000000,,2013-03-09 04:00:00,
2013-03-08 20:22:00,35.0,27.0,-100.00,WNW,296,7.0,26.0,71,0.00,,,0.39,0.000000,,2013-03-09 04:22:00,
2013-03-08 20:32:00,35.0,27.0,-100.00,WNW,296,7.0,26.0,71,0.00,,,0.39,0.000000,,2013-03-09 04:32:00,
2013-03-08 20:42:00,35.0,27.0,-100.00,WNW,296,7.0,26.0,71,0.00,,,0.39,0.000000,,2013-03-09 04:42:00,
2013-03-08 20:52:00,35.0,27.0,-100.00,WNW,296,7.0,26.0,71,0.00,,,0.39,0.000000,,2013-03-09 04:52:00,
2013-03-08 21:00:00,36.0,27.0,-100.00,WNW,295,10.0,22.0,69,-99.99,,,0.39,0.000000,,2013-03-09 05:00:00,
2013-03-08 21:32:00,36.0,27.0,-100.00,WNW,295,10.0,22.0,69,-99.99,,,0.39,0.000000,,2013-03-09 05:32:00,
2013-03-08 21:43:00,36.0,27.0,-100.00,WNW,295,10.0,22.0,69,-99.99,,,0.39,0.000000,,2013-03-09 05:43:00,
2013-03-08 21:53:00,36.0,27.0,-100.00,WNW,295,10.0,22.0,69,-99.99,,,0.39,0.000000,,2013-03-09 05:53:00,
2013-03-08 22:00:00,38.0,30.0,-100.00,WNW,287,9.0,19.0,72,0.00,,,0.39,0.000000,,2013-03-09 06:00:00,
2013-03-08 22:32:00,38.0,30.0,-100.00,WNW,287,9.0,19.0,72,0.00,,,0.39,0.000000,,2013-03-09 06:32:00,
2013-03-08 22:42:00,38.0,30.0,-100.00,WNW,287,9.0,19.0,72,0.00,,,0.39,0.000000,,2013-03-09 06:42:00,
2013-03-08 22:52:00,38.0,30.0,-100.00,WNW,287,9.0,19.0,72,0.00,,,0.39,0.000000,,2013-03-09 06:52:00,
2013-03-08 23:00:00,38.0,29.0,-100.00,WNW,294,9.0,19.0,70,0.00,,,0.39,0.000000,,2013-03-09 07:00:00,
2013-03-08 23:32:00,38.0,29.0,-100.00,WNW,294,9.0,19.0,70,0.00,,,0.39,0.000000,,2013-03-09 07:32:00,
2013-03-08 23:42:00,38.0,29.0,-100.00,WNW,294,9.0,19.0,70,0.00,,,0.39,0.000000,,2013-03-09 07:42:00,
2013-03-08 23:52:00,38.0,29.0,-100.00,WNW,294,9.0,19.0,70,0.00,,,0.39,0.000000,,2013-03-09 07:52:00,